Regional Weather Roundup
Issued by NWS

Home | Current Version | Previous Version | Graphics & Text | Print | Product List | Glossary On
Versions: 1 2 3 4 5 6 7 8 9 10 11 12 13 14 15 16 17 18 19 20 21 22 23 24 25 26 27 28 29 30 31 32 33 34 35 36 37 38 39 40 41 42 43 44 45 46 47 48 49 50
480
ASUS45 KTFX 291410
RWRMT
MONTANA REGIONAL WEATHER ROUNDUP
NATIONAL WEATHER SERVICE GREAT FALLS MT
800 AM MDT WED MAR 29 2017

NOTE: "FAIR" INDICATES FEW OR NO CLOUDS BELOW 12000 FEET WITH NO
SIGNIFICANT WEATHER AND/OR OBSTRUCTIONS TO VISIBILITY.

MTZ001>007-043-291500-
WEST OF THE DIVIDE

CITY           SKY/WX    TMP DP  RH WIND       PRES   REMARKS
KALISPELL      CLOUDY    39  33  79 VRB3      30.05F
MISSOULA       CLOUDY    41  34  76 E3        30.09F
BUTTE          CLOUDY    32  24  72 SE3       30.11F
MULLAN PASS    SNOW      30  29  96 VRB3      29.98F VSB 1/4
ANACONDA         N/A     36  25  64 S5        30.10S
DEER LODGE       N/A     30  27  86 W3        30.12F
EUREKA           N/A     43  34  70 SE10      30.04S
HAMILTON         N/A     41  30  65 S7        30.09F
RONAN            N/A     40  33  76 CALM      30.10F
$$

MTZ008-052>055-291500-
SOUTHWEST MONTANA

CITY           SKY/WX    TMP DP  RH WIND       PRES   REMARKS
BOZEMAN        CLOUDY    34  27  75 SE7       30.12F WCI  28
DILLON         CLOUDY    33  21  61 S12       30.12S WCI  24
W YELLOWSTONE  CLOUDY    28  25  86 SW9       30.20F WCI  20
ENNIS          CLEAR     37  27  65 S14G25    30.17F WCI  29
THREE FORKS      N/A     34  -1  22 MISG      30.09F
$$

MTZ009-010-012-014-046-048-049-054-291500-
EAST SLOPES AND CENTRAL MONTANA

CITY           SKY/WX    TMP DP  RH WIND       PRES   REMARKS
CUT BANK       CLOUDY    38  26  62 W20       29.98F WCI  28
GREAT FALLS    CLOUDY    41  27  57 SW12      30.03F
MALMSTROM AFB  PTCLDY    41  29  62 SW13      30.04F
HELENA         CLOUDY    42  29  59 CALM      30.09F
AUGUSTA        CLOUDY    38  26  61 S5        30.03F
BOWMANS CRNR   MOCLDY    37  27  65 S13       30.03S WCI  29
CHOTEAU          N/A     34  27  75 S5        30.05R
CONRAD           N/A     37  31  79 SW8       30.02F WCI  31
FAIRFIELD      MOCLDY    38  26  61 S9        30.03F WCI  31
POWER            N/A     38  28  65 SW12      30.02F WCI  31
RAYNESFORD     MOCLDY    42  26  55 SW9       30.04F
$$

MTZ011-013-016-021-045-047-050-051-291500-
NORTH CENTRAL MONTANA

CITY           SKY/WX    TMP DP  RH WIND       PRES   REMARKS
HAVRE          CLEAR     37  28  70 SW14      30.01S WCI  28
LEWISTOWN      CLEAR     35  25  66 VRB3      30.06R
N BAR RANCH      N/A     36  23  60 CALM      30.08S
CHINOOK          N/A     37  28  70 W5        30.01S
DENTON           N/A     37  27  67 SW5G17    30.01S
GEYSER           N/A     39  26  59 SW13G20   30.03F WCI  32
GRASS RANGE      N/A     37  28  68 W5        30.03R
JUDITH GAP     MOCLDY    34 N/A N/A W9        30.05R WCI  26
STANFORD         N/A     40  26  59 SW6       30.04S
WINIFRED         N/A     38  28  66 SW8       30.04R
$$

MTZ017>020-022>027-061-062-291500-
NORTHEAST MONTANA

CITY           SKY/WX    TMP DP  RH WIND       PRES   REMARKS
GLASGOW        MOSUNNY   39  29  67 SW6       30.02R
JORDAN           N/A     34  31  88 NW3       30.04S
SIDNEY         PTSUNNY   35  35 100 S7        30.06S WCI  29
WOLF POINT     PTSUNNY   39  35  86 CALM      30.04R
MALTA          CLEAR     32  28  86 SW7       30.02R WCI  26
PLENTYWOOD       N/A     36  36 100 SE5       30.01F
POPLAR           N/A     39  36  87 CALM      30.03S
$$

MTZ028>42-056>058-291500-
SOUTHCENTRAL AND SOUTHEAST MONTANA

CITY           SKY/WX    TMP DP  RH WIND       PRES   REMARKS
BAKER          MOSUNNY   35  33  92 E3        30.08S
BILLINGS       CLOUDY    40  28  62 SW9       30.08S
LIVINGSTON     CLOUDY    34  24  67 W10       30.09F WCI  26
MILES CITY     CLOUDY    35  32  88 SE7       30.07S WCI  29
BIG TIMBER     CLEAR     41  23  48 W22G28    30.09S
FORSYTH          N/A     36  36 100 CALM      30.08S
HARLOWTON        N/A     36  25  64 W17       30.06F WCI  25
LAUREL           N/A     37  20  50 CALM      30.06F
$$

REGIONAL REPORTS...DAKOTAS

CITY           SKY/WX    TMP DP  RH WIND       PRES   REMARKS
WILLISTON      CLOUDY    34  34 100 SW3       30.05S FOG
MINOT          CLOUDY    44  40  85 S9        30.06S
DICKINSON      CLOUDY    41  40  96 S14       30.06S
BEACH            N/A     36  36 100 CALM      30.09F
TIOGA          FOG       32  32 100 CALM      30.06S VSB<1/4
WATFORD CITY     N/A     32  32 100 CALM      30.05F
BISMARCK       SUNNY     41  39  93 SE7       30.13F
GRAND FORKS    CLOUDY    36  33  89 S7        30.16F WCI  30
FARGO          CLOUDY    39  36  89 CALM      30.18R
BUFFALO SD       N/A     42  41  96 S9        30.03F
RAPID CITY     CLOUDY    40  39  97 CALM      30.11S
$$

REGIONAL REPORTS...WYOMING/IDAHO/WASHINGTON

CITY           SKY/WX    TMP DP  RH WIND       PRES   REMARKS
GILLETTE       CLOUDY    40  36  86 VRB3      30.09F
SHERIDAN       CLOUDY    35  30  82 CALM      30.09S
BUFFALO WY     CLOUDY    41  25  53 SW6       30.10S
CODY           CLOUDY    44  23  43 SW12      30.11R
YELLOWSTONE LA   N/A     25  22  88 CALM      30.21R
IDAHO FALLS    CLOUDY    35  29  78 S9        30.22S WCI  28
SALMON         MOCLDY    27  23  86 CALM      30.16S
BOISE          CLOUDY    44  32  62 SE9       30.17F
SPOKANE        LGT RAIN  40  39  97 SE7       30.02F FOG
$$

REGIONAL REPORTS...ALBERTA

CITY           SKY/WX    TMP DP  RH WIND       PRES   REMARKS
CALGARY        MOCLDY    36  21  55 S3        29.90S
LETHBRIDGE     MOCLDY    43  28  56 SW17G23   29.94F
MEDICINE HAT   PTCLDY    37  28  70 SW8       29.93S WCI  31
WATERTON GATE    N/A     37  27  65 SW13G18     N/A  WCI  29
CARDSTON         N/A     36  25  64 S8          N/A  WCI  29
MILK RIVER       N/A     39  28  65 W5          N/A
ONEFOUR          N/A     37  27  65 SE3         N/A
$$

REGIONAL REPORTS...SASKATCHEWAN

CITY           SKY/WX    TMP DP  RH WIND       PRES   REMARKS
SWIFT CURRENT  CLEAR     36  28  75 W15G21    29.87S WCI  26
REGINA         PTSUNNY   36  36 100 SE9       29.93F WCI  29
SASKATOON      PTSUNNY   34  32  93 SE3       29.86F
CYPRESS HILLS    N/A     37  21  52 W10G21      N/A  WCI  30
VAL MARIE        N/A     36  28  75 SW7         N/A  WCI  30
ROCKGLEN         N/A     36  27  69 SW10        N/A  WCI  28
$$




USA.gov is the U.S. government's official web portal to all federal, state and local government web resources and services.